Starlink 5315

operational
NORAD ID: 55309 Int'l Des: 2023-010 Owner: SPXS Country: US Constellation: starlink
LEOCIRCULAR

关于 Starlink 5315

正在加载描述...

实时位置

正在加载3D地球...

即将过境

高度历史

Altitude vs Time

uPlot chart will show altitude changes over time

两行轨道根数

1 55309U 23010AS 26063.13404616 .00000489 00000-0 48795-4 0 9998
2 55309 70.0016 18.3222 0002890 268.9522 91.1306 14.98327935172943
Epoch: Mar 4, 2026 • Age: 19 hours

当前状态

高度 595.5 km
速度 7.56 km/s
星下点 -69.69°S, 146.64°W
发射日期 Jan 19, 2023
运行时间 3.1 years
类型 internet

技术详情

分类 Payload
质量 305.00 kg
干质量 290.00 kg
总质量 305.00 kg
长度 0.20 m
直径 2.80 m
跨度 9.00 m
形状 Box + pan
制造商 SPXS
平台类型 Starlink
阶段状态 In Orbit
所有者/国家 SPXS/US

大型星座

Loading constellations...